Location: Lolworth
(52.2500°N, 0.0167°W)
Time: 05:21:51
(UTC+00:00)

Daily predictions for brighter satellites

Satellite Brightness Start Highest point End
(mag) Time Altitude Azimuth Time Altitude Azimuth Time Altitude Azimuth
Cosmos 1331 Rocket 3.9 00:06:53 75° SE 00:07:01 76° ESE 00:12:18 10° NNE
Cosmos 1758 Rocket 3.8 00:02:55 10° NNW 00:06:37 62° NW 00:06:37 62° NW
ATLAS 2AS CENTAUR R/B 2.6 00:09:45 54° SSW 00:11:29 80° SE 00:18:20 10° NE
Cosmos 1891 Rocket 4.4 00:12:15 61° S 00:13:28 90° ESE 00:19:43 10° N
Cosmos 1782 4.2 00:16:32 28° NW 00:16:32 28° NW 00:18:53 10° N
Cosmos 1900 4.3 00:17:30 70° E 00:17:30 70° E 00:22:10 10° NE
Meteor 1-20 Rocket 4.0 00:12:08 10° NNW 00:17:36 77° W 00:18:03 72° SW
ALOS 2 4.2 00:20:07 25° W 00:20:07 25° W 00:23:11 10° NW
Meteor 1-5 Rocket 4.3 00:14:37 10° N 00:19:59 64° ENE 00:20:58 54° ESE
SeaSat 1 4.3 00:21:51 18° W 00:21:51 18° W 00:24:19 10° WNW
Cosmos 1110 Rocket 3.9 00:23:00 72° WSW 00:23:29 80° WNW 00:28:50 10° NNE
Cosmos 1980 Rocket 2.0 00:17:55 10° NNW 00:23:40 82° WSW 00:24:19 70° S
USA 234 3.7 00:22:04 10° E 00:28:29 60° N 00:34:55 10° WNW
Cosmos 1825 Rocket 3.8 00:28:13 10° N 00:32:19 62° ENE 00:32:19 62° ENE
Cosmos 2369 3.8 00:29:12 10° NNW 00:34:55 73° ENE 00:36:37 46° SE
Meteor 2-10 4.2 00:29:28 10° N 00:34:58 73° ENE 00:36:02 57° SE
Cosmos 1602 Rocket 3.9 00:32:44 10° NNW 00:36:24 56° NW 00:36:24 56° NW
Cosmos 2084 4.2 00:46:23 41° E 00:46:23 41° E 00:49:23 10° NE
Cosmos 1428 Rocket 4.4 00:40:23 10° NNW 00:46:43 79° W 00:48:07 56° S
Cosmos 2360 Rocket 3.9 00:45:16 10° NNW 00:50:17 31° NE 00:55:17 10° ESE
Cosmos 2333 Rocket 3.2 00:46:10 10° NNW 00:51:35 44° NE 00:57:00 10° ESE
Cosmos-2242 4.2 00:52:12 31° E 00:52:23 32° E 00:56:07 10° NNE
Cosmos 1933 4.0 00:53:32 44° NW 00:53:32 44° NW 00:56:35 10° N
USA 281 3.7 00:51:27 15° SE 00:56:48 59° NE 01:03:15 10° NNW
Cosmos 1452 Rocket 3.7 00:58:56 53° WSW 00:59:48 62° WNW 01:05:01 10° NNE
Cosmos 2082 Rocket 2.4 00:59:24 51° SSE 01:00:19 57° ESE 01:05:56 10° NE
Cosmos 1833 Rocket 3.6 01:00:04 30° W 01:02:10 42° NW 01:07:31 10° NNE
Nadezhda 4 Rocket 4.1 00:56:59 10° NNW 01:02:58 55° W 01:04:04 48° SW
Landsat 5 4.0 00:59:41 10° N 01:03:47 51° WNW 01:03:47 51° WNW
Cosmos 2098 Rocket 3.7 01:03:15 56° SW 01:04:16 67° WNW 01:09:51 10° N
Cosmos 2322 Rocket 3.5 01:00:32 10° NNW 01:05:48 38° NE 01:11:03 10° ESE
Cosmos 1867 3.7 01:06:15 51° WSW 01:07:34 72° NW 01:13:03 10° NE
Cosmos 1464 Rocket 4.2 01:13:31 44° WSW 01:15:06 55° WNW 01:21:08 10° N
CZ-2C R/B 4.1 01:10:25 10° N 01:15:09 37° WNW 01:16:33 31° W
ACS3 Solar Sail 1.8 01:10:35 10° NNE 01:16:38 74° ESE 01:18:33 46° S
Cosmos 1606 Rocket 3.6 01:18:01 63° W 01:18:06 63° WNW 01:22:30 10° N
Cosmos 2219 Rocket 3.9 01:14:37 10° NNW 01:19:38 32° NE 01:24:39 10° ESE
SL-16 R/B 2.4 01:15:25 10° NNW 01:21:08 71° ENE 01:24:52 22° SE
Okean 1-7 Rocket 4.4 01:17:38 10° NNW 01:21:12 36° WNW 01:21:12 36° WNW
Cosmos 1437 Rocket 3.8 01:22:27 31° NW 01:22:27 31° NW 01:24:58 10° N
CZ-4C R/B 1.7 01:22:06 63° SSE 01:22:26 66° SE 01:27:55 10° NE
GP-B 2.9 01:18:44 10° N 01:23:08 89° E 01:23:25 78° S
SL-4 R/B 4.1 01:31:34 15° ESE 01:31:34 15° ESE 01:32:20 10° ESE
ATLAS 3B R/B 3.4 01:21:38 10° NW 01:28:35 37° WSW 01:29:23 36° SW
CZ-2C R/B 4.0 01:30:23 24° W 01:30:30 24° W 01:34:49 10° NW
USA 267 4.5 01:26:48 10° ENE 01:32:08 26° SE 01:34:01 23° SSE
Cosmos 2058 Rocket 3.1 01:32:04 60° SSE 01:32:40 70° E 01:37:05 10° NNE
Cosmos 1076 Rocket 4.0 01:29:05 10° NNW 01:32:57 45° W 01:32:57 45° W
Cosmos 2026 Rocket 4.2 01:27:12 10° NNW 01:33:18 57° W 01:35:02 43° SW
Gbstr 26 Del rocket 4.2 01:37:23 24° ESE 01:37:23 24° ESE 01:38:59 10° ESE
Cosmos 1470 3.6 01:32:39 10° N 01:35:47 35° ENE 01:36:16 33° E
Okean 1 3.7 01:37:01 44° NW 01:37:01 44° NW 01:39:58 10° N
Cosmos 2034 Rocket 4.3 01:34:39 41° SW 01:36:41 58° WNW 01:43:00 10° N
Cosmos 2237 4.4 01:31:36 10° NW 01:37:09 53° WSW 01:38:02 48° SW
KORONAS-FOTON 4.3 01:38:28 45° E 01:38:28 45° E 01:41:31 10° NNE
Cosmos 909 Rocket 4.0 01:37:58 43° SSW 01:40:14 85° SE 01:46:43 10° NE
PSLV R/B 4.0 01:39:58 10° N 01:43:42 54° WNW 01:43:44 54° WNW
Cosmos 1726 Rocket 3.9 01:44:06 46° W 01:44:22 47° WNW 01:48:27 10° N
Cosmos 1992 Rocket 4.0 01:45:03 48° SW 01:46:25 69° WNW 01:51:39 10° NNE
Cosmos 1092 Rocket 4.2 01:41:03 10° NNW 01:47:00 52° W 01:48:44 40° SW
Cosmos 1536 2.6 01:43:24 10° NNW 01:46:48 69° NW 01:46:48 69° NW
NOSS 3-4 (A) 4.2 01:44:33 10° NW 01:50:54 61° NE 01:58:24 10° ESE
NOSS 3-4 (C) 4.2 01:45:05 10° NW 01:51:27 61° NE 01:58:58 10° ESE
Meteor 1-26 Rocket 4.1 01:51:49 46° SSW 01:53:27 75° WNW 01:58:53 10° N
IDEFIX/ARIANE 42P 2.6 01:50:15 10° NNE 01:55:28 77° ESE 01:57:22 40° S
Cosmos 1766 4.0 01:54:58 10° NNW 01:57:04 32° NW 01:57:04 32° NW
Cosmos 1953 Rocket 4.5 01:55:22 10° NNW 01:59:18 33° W 01:59:18 33° W
Cosmos 2084 Rocket 3.6 01:57:18 10° NW 02:01:29 70° NE 02:05:43 10° SE
Cosmos 1707 3.0 02:03:05 40° NNW 02:03:05 40° NNW 02:05:15 10° N
ATLAS 2AS CENTAUR R/B 3.6 01:57:07 13° W 02:02:57 43° NNW 02:09:24 10° NE
Iridium 4 Rocket 4.5 02:03:00 16° SSE 02:06:21 41° E 02:11:07 10° NNE
Cosmos 1980 Rocket 3.9 02:03:22 10° WNW 02:06:03 16° W 02:06:03 16° W
Nimbus 7 Rocket 4.4 02:01:15 10° NNE 02:07:21 78° WNW 02:10:08 34° SSW
MOZ.5/SAFIR/RUBIN 5/SL-8 3.9 02:05:32 23° SSE 02:08:28 74° ENE 02:13:07 10° NNW
Cosmos 1975 2.6 02:05:58 10° N 02:09:37 75° E 02:10:35 46° SSE
H-2A R/B 3.7 02:06:25 10° SE 02:09:43 34° ENE 02:13:00 10° N
Cosmos 990 Rocket 4.1 02:04:40 10° NNW 02:09:50 73° ENE 02:14:57 10° SSE
Cosmos 44 Rocket 3.4 02:08:21 41° SW 02:10:10 81° NW 02:15:24 10° NE
ADEOS II 4.0 02:07:04 10° NE 02:11:16 24° E 02:15:27 10° SE
USA 234 3.3 02:04:45 10° ESE 02:11:18 86° NNE 02:17:54 10° WNW
ALOS 3.8 02:12:00 10° NNE 02:15:59 29° E 02:19:31 12° SSE
Cosmos 1763 Rocket 4.2 02:13:17 25° SSE 02:16:02 48° ESE 02:21:07 10° NE
MSX 3.8 02:11:15 10° NNE 02:17:01 78° WNW 02:19:47 32° SSW
COSMOS 2406 3.2 02:14:30 35° SW 02:17:02 84° WNW 02:22:51 10° NNE
CZ-2D R/B 3.4 02:15:14 10° NNE 02:20:04 36° E 02:24:33 12° SSE
SL-16 R/B 4.4 02:17:25 10° ESE 02:22:48 31° NE 02:28:11 10° N
ADEOS Rocket 3.6 02:15:38 10° NNE 02:23:13 81° ESE 02:28:49 21° SSW
Cosmos 1634 Rocket 4.4 02:20:35 30° SW 02:23:14 46° WNW 02:29:11 10° N
Cosmos-2242 4.0 02:28:29 28° W 02:29:22 31° WNW 02:33:07 10° N
Cosmos 1354 Rocket 3.9 02:27:04 10° NNW 02:32:23 79° WSW 02:37:37 10° SSE
Cosmos 220 Rocket 3.7 02:32:09 41° SW 02:33:28 76° WNW 02:37:31 10° NNE
Cosmos 1503 Rocket 4.1 02:28:33 10° NNW 02:33:42 56° WSW 02:37:01 21° S
Cosmos 2360 Rocket 2.1 02:29:06 10° NW 02:34:45 69° WSW 02:40:23 10° SSE
Cosmos 1607 4.0 02:31:28 27° WSW 02:34:58 72° NW 02:41:16 10° NE
FENGYUN 3A 3.7 02:29:52 10° NNE 02:35:18 72° WNW 02:38:13 28° SSW
Cosmos 1842 3.1 02:35:26 44° W 02:35:41 45° WNW 02:38:47 10° N
Cosmos 2333 Rocket 2.5 02:30:35 10° NW 02:35:56 43° WSW 02:38:59 23° SSW
Alouette 2 Rocket 4.2 02:32:40 10° N 02:36:56 51° ENE 02:40:25 10° SSE
USA 305 3.1 02:38:25 28° NE 02:38:25 28° NE 02:39:20 10° ENE
USA 281 3.7 02:38:17 24° SSW 02:41:34 38° WSW 02:47:39 10° NW
Cosmos 540 Rocket 3.6 02:41:18 24° S 02:44:27 71° ESE 02:49:36 10° NNE
Cosmos 2082 Rocket 3.3 02:41:13 19° W 02:44:42 36° NW 02:49:58 10° NNE
Cosmos 2221 2.5 02:43:58 33° SW 02:45:39 61° WNW 02:49:45 10° N
NPP 3.9 02:43:06 10° N 02:48:24 56° WNW 02:51:27 25° SW
Resurs 1-4 Rocket 2.4 02:43:36 10° NNE 02:48:55 65° ESE 02:53:19 15° S
Meteor 2-9 Rocket 4.4 02:43:58 10° NNW 02:49:04 47° W 02:52:06 23° SSW
Cosmos 2278 4.2 02:44:13 10° NW 02:49:28 38° WSW 02:52:57 19° SSW
Cosmos 2322 Rocket 2.3 02:44:34 10° NW 02:50:01 51° WSW 02:55:27 10° S
BREEZE-M DEB (TANK) 2.8 02:50:12 35° WSW 02:51:13 56° S 02:57:21 10° ESE
DNEPR-1 R/B 4.1 02:47:42 10° NW 02:52:55 76° SW 02:59:17 10° SE
Cosmos 1766 Rocket 3.6 02:51:49 10° N 02:56:11 77° ENE 03:00:30 10° SSE
ACS3 Solar Sail 3.1 02:53:40 10° N 02:58:32 26° WNW 03:02:06 16° WSW
Cosmos 1271 Rocket 2.9 03:01:02 29° WSW 03:02:17 43° WNW 03:05:38 10° N
H-2A R/B 2.5 02:57:58 10° NNE 03:03:03 61° ESE 03:08:14 10° S
Cosmos 2237 Rocket 4.3 02:58:37 10° NNW 03:03:39 31° NE 03:08:39 10° ESE
Cosmos 2219 Rocket 2.1 02:58:25 10° NW 03:04:00 66° WSW 03:09:36 10° SSE
SL-16 R/B 3.3 03:00:13 10° NW 03:04:42 25° WSW 03:06:38 20° SW
NOSS 3-3 (A) 4.0 03:01:35 21° WSW 03:05:20 69° NW 03:11:54 10° NE
SL-4 R/B 2.7 03:05:08 26° SW 03:05:32 27° SSW 03:08:46 10° SSE
Meteor 1-11 Rocket 4.0 03:00:24 10° NNW 03:06:08 54° W 03:11:36 11° S
Meteor 1-19 Rocket 4.3 03:04:31 20° SSW 03:08:14 58° WNW 03:13:48 10° N
Cosmos 1470 4.0 03:07:10 10° NW 03:09:29 18° W 03:09:29 18° W
NOAA 11 4.3 03:04:31 10° N 03:09:51 59° WNW 03:13:49 18° SW
CZ-4C R/B 3.1 03:06:59 12° W 03:11:02 38° NNW 03:16:46 10° NE
USA 290 2.1 03:10:18 25° SSW 03:11:58 90° WNW 03:15:10 10° NNE
ARGOS 4.5 03:08:52 10° NNE 03:13:54 38° E 03:18:53 10° SSE
Meteor 1-10 Rocket 4.4 03:11:31 17° SSW 03:15:56 62° WNW 03:21:43 10° N
USA 267 3.4 03:09:21 10° ENE 03:15:56 70° SE 03:21:22 16° SW
Gbstr 26 Del rocket 3.6 03:19:26 19° WSW 03:21:03 25° SW 03:24:10 10° SSE
NOSS 3-3 (C) 4.1 03:17:53 17° WSW 03:22:11 66° NW 03:28:49 10° NE
Cosmos 2322 3.9 03:18:36 10° NNW 03:24:21 78° ENE 03:30:03 10° SE
Cosmos 372 Rocket 4.0 03:23:22 10° NNW 03:28:28 60° WSW 03:33:29 10° S
Cosmos 1812 Rocket 4.5 03:26:34 17° SW 03:29:14 32° WNW 03:33:09 10° N
ISS -1.8 03:29:12 11° S 03:31:29 20° SE 03:34:00 10° E
IDEFIX/ARIANE 42P 4.1 03:30:32 10° N 03:34:24 22° NW 03:38:03 11° WSW
Cosmos 1655 Rocket 4.2 03:29:04 10° NNW 03:35:03 50° W 03:40:59 10° SSW
JB-3 4.3 03:31:44 10° S 03:35:14 50° W 03:38:46 10° NNW
BREEZE-M DEB (TANK) 3.7 03:31:26 12° SW 03:36:31 30° SSE 03:39:21 10° E
Envisat 3.4 03:32:06 10° N 03:36:59 49° WNW 03:41:31 12° SW
Cosmos 1244 Rocket 4.5 03:33:29 10° NNW 03:39:46 74° W 03:45:55 10° S
Aureole 1 Rocket 3.8 03:36:15 10° NW 03:40:02 35° WSW 03:44:38 10° S
Meteor 2-4 Rocket 3.6 03:34:54 10° SSW 03:40:16 76° WNW 03:45:39 10° N
Cosmos 1461 3.4 03:37:00 10° SSW 03:40:34 46° SE 03:44:10 10° NE
NOSS 3-4 (A) 4.0 03:35:25 10° NW 03:41:50 48° SW 03:49:18 10° SSE
NOSS 3-4 (C) 4.0 03:35:57 10° NW 03:42:24 48° SW 03:49:53 10° SSE
H-2A R/B 3.3 03:41:22 13° SW 03:43:45 23° W 03:46:40 10° NW
AQUA 4.3 03:39:37 10° NNE 03:44:17 61° ESE 03:48:54 10° S
NOSS 0 Rocket 4.1 03:38:23 10° NNW 03:44:38 79° NE 03:50:49 10° SE
Cosmos 1066 Rocket 4.1 03:40:22 10° S 03:45:44 87° ESE 03:51:08 10° NNE
Iridium 4 Rocket 4.3 03:42:31 12° SW 03:46:14 31° WNW 03:50:45 10° NNW
Cosmos 1151 Rocket 4.2 03:45:25 10° SSE 03:49:24 43° E 03:53:26 10° NNE
Cosmos 1500 Rocket 4.1 03:45:20 10° N 03:49:43 62° ENE 03:54:06 10° SSE
Nadezhda 2 Rocket 4.4 03:43:47 10° NNW 03:49:53 71° W 03:55:56 10° S
ADEOS II 2.2 03:46:04 10° N 03:51:14 62° WNW 03:56:23 10° SSW
Cosmos 1842 Rocket 3.5 03:47:06 10° SSW 03:51:23 73° WNW 03:55:43 10° N
Meteor 1-27 Rocket 4.2 03:46:11 10° SW 03:51:57 51° WNW 03:57:44 10° N
Cosmos 1238 Rocket 3.2 03:50:21 13° SW 03:52:30 28° WNW 03:55:12 10° N
ALOS 2.8 03:48:44 10° N 03:53:01 41° WNW 03:57:17 10° SW
BREEZE-M DEB (TANK) 2.2 03:48:52 10° W 03:53:08 84° N 03:55:17 10° E
BREEZE-M DEB (TANK) 4.1 03:49:50 10° W 03:53:09 32° SSW 04:01:35 10° SE
Cosmos 1386 Rocket 4.5 03:47:42 10° N 03:53:50 87° W 04:00:04 10° S
USA 234 3.6 03:48:35 10° SSE 03:54:44 43° SW 04:00:55 10° WNW
ATLAS 2AS CENTAUR R/B 4.2 03:49:26 10° WNW 03:55:29 32° N 04:01:27 10° ENE
TSX-5 3.2 03:53:27 10° NNW 03:56:37 80° NE 03:59:41 10° SE
Cosmos 858 Rocket 4.5 03:51:34 10° NNW 03:56:48 84° WSW 04:01:58 10° SSE
Cosmos 1763 Rocket 4.5 03:53:11 10° WSW 03:57:56 34° NW 04:02:46 10° NNE
Cosmos 2297 Rocket 3.9 03:53:03 10° SSE 03:57:57 31° ESE 04:02:52 10° NE
CZ-2D R/B 2.7 03:55:12 10° N 04:00:08 42° WNW 04:05:06 10° SW
Sich 1 3.0 03:57:24 10° NNW 04:01:31 58° W 04:05:34 10° S
Okean 3 Rocket 3.6 03:58:08 10° NNW 04:02:32 61° W 04:06:55 10° S
USA 305 1.3 04:01:39 10° WNW 04:03:07 27° N 04:03:51 10° ENE
Cosmos 1758 3.0 03:59:35 10° NNW 04:03:14 81° W 04:06:52 10° S
COSMOS 2428 2.7 03:57:39 10° NW 04:03:20 67° WSW 04:08:58 10° SSE
Cosmos 841 Rocket 3.5 03:59:53 10° SSW 04:05:02 87° WNW 04:10:17 10° NNE
CZ-3 R/B 4.4 03:45:32 10° WSW 04:05:46 26° SSW 04:14:11 10° SSE
SL-16 R/B 2.6 03:59:45 10° S 04:05:59 66° WSW 04:12:15 10° NNW
Cosmos 1898 Rocket 4.0 04:05:00 10° NW 04:09:44 38° WSW 04:14:27 10° S
Cosmos 1743 Rocket 4.1 04:06:22 10° N 04:10:47 66° ENE 04:15:06 10° SSE
Cosmos 1805 Rocket 3.5 04:06:56 10° NNW 04:11:21 79° W 04:15:43 10° S
Cosmos 1937 Rocket 3.8 04:09:17 10° NW 04:14:15 46° WSW 04:19:08 10° S
